ATLAS CENTAUR R/B

基本信息
目录编号:
12445
目录名称:
ATLAS CENTAUR R/B
国际标识:
1980-098B
轨道中心:
EARTH
物体状态:
在轨
发射日期:
1980-12-06 UTC
国别:
美国 (US)
轨道信息
数据来源: 国际轨道数据
星历时间: 2026-07-13T19:53:16+0800
半长轴: 11383.532km
偏心率: 0.4089273
轨道倾角: 23.635°
近地点辐角: 136.081°
升交点赤经: 335.500°
平近点角: 264.884°
近地点: 350.357km
远地点: 9660.433km
周期: 201.454分钟
每日圈数: 7.148044
详细信息
发射场:
AFETR
轨道高度:
LEO
数据来源:
AOE Integration Group
参考系:
TEME
时间系统:
UTC
历元类型:
SGP4
2D轨道图
3D轨道图
轨道高度分析图
轨道倾角分析图
轨道综合分析图
查看轨道综合分析图